| time (UTC) | temp C | wind direction | speed KPH | gust KPH | rain 1hr cm | rain 24hr cm | rain mn cm | humidity % | barometer mb |
| 20260906204528 | 26 | 242 | 0.0 | 8.0 | 0.00 | 0.00 | 0.00 | 64 | 1014.1 |
| 20260906203027 | 26 | 239 | 0.0 | 4.8 | 0.00 | 0.00 | 0.00 | 65 | 1014.0 |
| 20260906201503 | 26 | 288 | 0.0 | 11.3 | 0.00 | 0.00 | 0.00 | 66 | 1014.1 |
| 20260906200005 | 25 | 257 | 3.2 | 12.9 | 0.00 | 0.00 | 0.00 | 68 | 1014.3 |
| 20260906194508 | 25 | 265 | 4.8 | 16.1 | 0.00 | 0.00 | 0.00 | 69 | 1014.8 |
| 20260906193014 | 25 | 259 | 6.4 | 16.1 | 0.00 | 0.00 | 0.00 | 69 | 1014.9 |
| 20260906191503 | 25 | 281 | 3.2 | 9.7 | 0.00 | 0.00 | 0.00 | 70 | 1015.3 |
| 20260906190005 | 24 | 291 | 0.0 | 12.9 | 0.00 | 0.00 | 0.00 | 71 | 1014.8 |
| 20260906184508 | 25 | 284 | 8.0 | 17.7 | 0.00 | 0.00 | 0.00 | 69 | 1014.8 |
| 20260906183052 | 25 | 257 | 3.2 | 12.9 | 0.00 | 0.00 | 0.00 | 70 | 1015.1 |
| 20260906181534 | 25 | 259 | 6.4 | 19.3 | 0.00 | 0.00 | 0.00 | 69 | 1015.3 |
| 20260906180003 | 25 | 338 | 8.0 | 19.3 | 0.00 | 0.00 | 0.00 | 69 | 1015.0 |
| 20260906174512 | 25 | 263 | 9.7 | 27.4 | 0.00 | 0.00 | 0.00 | 70 | 1014.6 |
| 20260906173018 | 25 | 257 | 9.7 | 22.5 | 0.00 | 0.00 | 0.00 | 75 | 1014.7 |
| 20260906171524 | 25 | 257 | 11.3 | 25.7 | 0.00 | 0.00 | 0.00 | 80 | 1015.0 |
| 20260906170006 | 25 | 217 | 9.7 | 20.9 | 0.00 | 0.00 | 0.00 | 84 | 1015.1 |
| 20260906164513 | 25 | 215 | 6.4 | 25.7 | 0.00 | 0.00 | 0.00 | 86 | 1015.3 |
| 20260906163018 | 25 | 180 | 9.7 | 22.5 | 0.00 | 0.00 | 0.00 | 86 | 1015.3 |
| 20260906161539 | 25 | 240 | 8.0 | 20.9 | 0.00 | 0.00 | 0.00 | 86 | 1015.2 |
| 20260906160007 | 25 | 252 | 3.2 | 22.5 | 0.00 | 0.00 | 0.00 | 86 | 1015.1 |
| 20260906154512 | 25 | 254 | 4.8 | 16.1 | 0.00 | 0.00 | 0.00 | 86 | 1015.0 |
| 20260906153035 | 25 | 240 | 0.0 | 6.4 | 0.00 | 0.00 | 0.00 | 86 | 1014.9 |
| 20260906151530 | 25 | 136 | 0.0 | 8.0 | 0.00 | 0.00 | 0.00 | 86 | 1014.3 |
| 20260906150005 | 25 | 160 | 0.0 | 11.3 | 0.00 | 0.00 | 0.00 | 86 | 1014.7 |
| 20260906144521 | 25 | 138 | 1.6 | 9.7 | 0.00 | 0.00 | 0.00 | 86 | 1014.4 |
| 20260906143022 | 25 | 149 | 0.0 | 1.6 | 0.00 | 0.00 | 0.00 | 86 | 1014.6 |
| 20260906141530 | 24 | 149 | 0.0 | 0.0 | 0.00 | 0.00 | 0.00 | 86 | 1014.6 |
| 20260906140036 | 24 | 147 | 0.0 | 0.0 | 0.00 | 0.00 | 0.00 | 86 | 1014.4 |
| 20260906134516 | 23 | 147 | 0.0 | 0.0 | 0.00 | 0.00 | 0.00 | 87 | 1014.3 |
| 20260906133031 | 23 | 147 | 0.0 | 0.0 | 0.00 | 0.00 | 0.00 | 88 | 1014.3 |
| 20260906131538 | 22 | 147 | 0.0 | 0.0 | 0.00 | 0.00 | 0.00 | 90 | 1014.5 |
| 20260906130035 | 22 | 147 | 0.0 | 0.0 | 0.00 | 0.00 | 0.00 | 90 | 1014.3 |
| 20260906124521 | 22 | 147 | 0.0 | 8.0 | 0.00 | 0.00 | 0.00 | 90 | 1013.8 |
| 20260906123030 | 21 | 124 | 0.0 | 4.8 | 0.00 | 0.00 | 0.00 | 90 | 1013.4 |
| 20260906121537 | 21 | 127 | 1.6 | 6.4 | 0.00 | 0.00 | 0.00 | 90 | 1013.2 |
| 20260906120032 | 21 | 134 | 0.0 | 6.4 | 0.00 | 0.00 | 0.00 | 90 | 1013.2 |
| 20260906114530 | 21 | 142 | 0.0 | 4.8 | 0.00 | 0.00 | 0.00 | 89 | 1013.1 |
| 20260906113004 | 21 | 147 | 0.0 | 0.0 | 0.00 | 0.00 | 0.00 | 89 | 1013.2 |
| 20260906111504 | 21 | 146 | 0.0 | 0.0 | 0.00 | 0.00 | 0.00 | 88 | 1013.4 |
| 20260906110004 | 21 | 146 | 0.0 | 0.0 | 0.00 | 0.03 | 0.00 | 88 | 1013.4 |
| 20260906104504 | 22 | 146 | 0.0 | 3.2 | 0.00 | 0.03 | 0.00 | 87 | 1013.4 |
| 20260906103011 | 22 | 150 | 1.6 | 4.8 | 0.00 | 0.03 | 0.00 | 87 | 1013.6 |
| 20260906101504 | 22 | 153 | 0.0 | 0.0 | 0.00 | 0.03 | 0.00 | 86 | 1013.8 |
| 20260906100004 | 22 | 153 | 0.0 | 3.2 | 0.00 | 0.03 | 0.00 | 86 | 1013.9 |
| 20260906094503 | 22 | 153 | 0.0 | 0.0 | 0.00 | 0.03 | 0.00 | 86 | 1013.9 |
| 20260906093003 | 22 | 153 | 0.0 | 0.0 | 0.00 | 0.03 | 0.00 | 86 | 1013.9 |
| 20260906091503 | 22 | 153 | 0.0 | 0.0 | 0.00 | 0.05 | 0.00 | 86 | 1013.9 |
| 20260906090006 | 22 | 153 | 0.0 | 0.0 | 0.00 | 0.05 | 0.00 | 85 | 1013.9 |
| 20260906084504 | 22 | 153 | 0.0 | 0.0 | 0.00 | 0.05 | 0.00 | 84 | 1013.9 |
| 20260906083006 | 22 | 153 | 0.0 | 0.0 | 0.00 | 0.08 | 0.00 | 84 | 1013.9 |
| 20260906081513 | 22 | 153 | 0.0 | 0.0 | 0.00 | 0.08 | 0.00 | 83 | 1013.8 |
| 20260906080007 | 22 | 153 | 0.0 | 1.6 | 0.00 | 0.08 | 0.00 | 83 | 1013.4 |
| 20260906074507 | 22 | 169 | 0.0 | 3.2 | 0.00 | 0.08 | 0.00 | 82 | 1013.4 |
| 20260906073008 | 22 | 223 | 0.0 | 0.0 | 0.00 | 0.08 | 0.00 | 82 | 1013.5 |
| 20260906071524 | 23 | 223 | 0.0 | 0.0 | 0.00 | 0.08 | 0.00 | 81 | 1013.2 |
| 20260906070012 | 23 | 223 | 0.0 | 0.0 | 0.00 | 0.08 | 0.00 | 81 | 1013.3 |
| 20260906064512 | 23 | 223 | 0.0 | 0.0 | 0.00 | 0.08 | 0.00 | 81 | 1013.3 |
| 20260906063011 | 23 | 227 | 0.0 | 0.0 | 0.00 | 0.08 | 0.00 | 80 | 1013.3 |
| 20260906061514 | 23 | 227 | 0.0 | 4.8 | 0.00 | 0.08 | 0.00 | 79 | 1013.3 |
| 20260906060022 | 23 | 142 | 0.0 | 0.0 | 0.00 | 0.08 | 0.00 | 78 | 1013.2 |
| 20260906054516 | 23 | 142 | 0.0 | 0.0 | 0.00 | 0.08 | 0.00 | 77 | 1013.1 |
| 20260906053010 | 23 | 142 | 1.6 | 12.9 | 0.00 | 0.08 | 0.00 | 76 | 1013.1 |
| 20260906051517 | 24 | 146 | 0.0 | 8.0 | 0.00 | 0.08 | 0.00 | 76 | 1013.2 |
| 20260906050018 | 24 | 140 | 1.6 | 8.0 | 0.00 | 0.08 | 0.00 | 76 | 1013.2 |
| 20260906044521 | 24 | 130 | 0.0 | 9.7 | 0.00 | 0.08 | 0.08 | 76 | 1013.2 |
| 20260906043024 | 24 | 130 | 1.6 | 9.7 | 0.00 | 0.08 | 0.08 | 75 | 1013.3 |
| 20260906041503 | 25 | 112 | 1.6 | 6.4 | 0.00 | 0.08 | 0.08 | 75 | 1013.1 |
| 20260906040004 | 25 | 120 | 1.6 | 11.3 | 0.00 | 0.08 | 0.08 | 73 | 1013.1 |
| 20260906034507 | 26 | 53 | 1.6 | 9.7 | 0.00 | 0.08 | 0.08 | 71 | 1013.0 |
| 20260906033013 | 25 | 80 | 0.0 | 8.0 | 0.00 | 0.08 | 0.08 | 72 | 1012.4 |
| 20260906031515 | 25 | 112 | 0.0 | 9.7 | 0.00 | 0.08 | 0.08 | 74 | 1012.4 |
| 20260906030004 | 26 | 150 | 1.6 | 8.0 | 0.00 | 0.08 | 0.08 | 74 | 1012.9 |
| 20260906024509 | 26 | 159 | 0.0 | 0.0 | 0.00 | 0.08 | 0.08 | 72 | 1013.1 |
| 20260906023013 | 26 | 159 | 0.0 | 0.0 | 0.00 | 0.08 | 0.08 | 71 | 1013.0 |
| 20260906021517 | 26 | 159 | 0.0 | 0.0 | 0.00 | 0.08 | 0.08 | 70 | 1013.3 |
| 20260906020004 | 26 | 158 | 0.0 | 0.0 | 0.00 | 0.08 | 0.08 | 70 | 1013.0 |
| 20260906014508 | 27 | 158 | 0.0 | 0.0 | 0.00 | 0.08 | 0.08 | 69 | 1012.6 |
| 20260906013016 | 27 | 158 | 0.0 | 0.0 | 0.00 | 0.08 | 0.08 | 67 | 1012.8 |
| 20260906011516 | 27 | 158 | 0.0 | 0.0 | 0.00 | 0.08 | 0.08 | 65 | 1012.9 |
| 20260906010005 | 28 | 158 | 0.0 | 0.0 | 0.00 | 0.08 | 0.08 | 63 | 1013.1 |
| 20260906004512 | 28 | 158 | 0.0 | 4.8 | 0.00 | 0.08 | 0.08 | 63 | 1013.5 |
| 20260906003018 | 28 | 137 | 0.0 | 0.0 | 0.00 | 0.08 | 0.08 | 61 | 1013.4 |
| 20260906001540 | 28 | 137 | 0.0 | 0.0 | 0.00 | 0.08 | 0.08 | 59 | 1013.2 |
| 20260906000005 | 29 | 137 | 0.0 | 0.0 | 0.00 | 0.08 | 0.08 | 58 | 1013.0 |
| 20260905234514 | 30 | 137 | 0.0 | 4.8 | 0.00 | 0.08 | 0.08 | 56 | 1012.9 |
| 20260905233024 | 30 | 136 | 0.0 | 4.8 | 0.00 | 0.08 | 0.08 | 54 | 1012.7 |
| 20260905231528 | 31 | 147 | 0.0 | 6.4 | 0.00 | 0.08 | 0.08 | 52 | 1012.3 |
| 20260905230008 | 31 | 136 | 3.2 | 11.3 | 0.00 | 0.08 | 0.08 | 50 | 1011.8 |
| 20260905224514 | 31 | 150 | 6.4 | 19.3 | 0.00 | 0.08 | 0.08 | 49 | 1011.3 |
| 20260905223041 | 32 | 132 | 8.0 | 16.1 | 0.00 | 0.08 | 0.08 | 49 | 1011.2 |
| 20260905221529 | 32 | 161 | 3.2 | 16.1 | 0.00 | 0.08 | 0.08 | 49 | 1011.4 |
| 20260905220028 | 32 | 157 | 4.8 | 16.1 | 0.00 | 0.08 | 0.08 | 50 | 1011.6 |
| 20260905214518 | 32 | 143 | 3.2 | 19.3 | 0.00 | 0.08 | 0.08 | 49 | 1011.6 |
| 20260905213028 | 32 | 136 | 6.4 | 16.1 | 0.00 | 0.08 | 0.08 | 50 | 1011.7 |
| 20260905211527 | 32 | 61 | 4.8 | 14.5 | 0.00 | 0.08 | 0.08 | 50 | 1011.8 |
| 20260905210043 | 32 | 59 | 8.0 | 17.7 | 0.00 | 0.08 | 0.08 | 49 | 1011.9 |